Weather History for Okmulgee, OK

Change the Weather History Date:

Wednesday, October 9, 2013

  Actual Average (KMKO) Record (KMKO)
Temperature  
Mean Temperature 62 °F -  
Max Temperature 78 °F 74 °F 86 °F (2010)
Min Temperature 45 °F 50 °F 27 °F (2000)
Degree Days  
Heating Degree Days 4    
Growing Degree Days 12 (Base 50)    
Moisture  
Dew Point 52 °F    
Average Humidity 75    
Maximum Humidity 99    
Minimum Humidity 45    
Precipitation  
Precipitation 0.00 in - - ()
Sea Level Pressure  
Sea Level Pressure 30.04 in    
Wind  
Wind Speed 5 mph (SE)    
Max Wind Speed 17 mph    
Max Gust Speed 25 mph    
Visibility 10 miles    
Events      
Averages and records for this station are not official NWS values.
T = Trace of Precipitation, MM = Missing Value Source: NWS Daily Summary

Daily Weather History Graph

Daily Weather History Graph

Search for Another Location

Airport:

Trip Planner

Search our weather history database for the weather conditions in past years. The results will help you decide how hot, cold, wet, or windy it might be!

Date:

Astronomy

Oct. 09, 2013 Rise Set
Actual Time 7:25 AM CDT 6:55 PM CDT
Civil Twilight 6:59 AM CDT 7:21 PM CDT
Nautical Twilight 6:30 AM CDT 7:50 PM CDT
Astronomical Twilight 6:00 AM CDT 8:20 PM CDT
Moon 12:14 PM CDT (10/9) 10:39 PM CDT (10/9)
Length of Visible Light 12h 21m
Length of Day
11h 30m
Waxing Crescent, 25% of the Moon is Illuminated
Oct 9
Waxing Crescent
Oct 11
First Quarter
Oct 18
Full
Oct 26
Last Quarter
Nov 3
New

Hourly Weather History & Observations

Time (CDT) Temp. Windchill Dew Point Humidity Pressure Visibility Wind Dir Wind Speed Gust Speed Precip Events Conditions
12:15 AM 50.9 °F - 48.7 °F 92% 30.04 in 10.0 mi East 3.5 mph - N/A   Clear
12:35 AM 51.6 °F - 48.6 °F 89% 30.04 in 10.0 mi Calm Calm - N/A   Clear
12:55 AM 51.3 °F - 48.4 °F 90% 30.03 in 10.0 mi ENE 4.6 mph - N/A   Clear
1:15 AM 49.1 °F - 47.5 °F 94% 30.03 in 10.0 mi Calm Calm - N/A   Clear
1:35 AM 50.0 °F - 48.2 °F 94% 30.03 in 10.0 mi Calm Calm - N/A   Clear
1:55 AM 50.0 °F - 48.6 °F 95% 30.04 in 10.0 mi SE 3.5 mph - N/A   Clear
2:15 AM 48.4 °F - 47.1 °F 95% 30.04 in 10.0 mi Calm Calm - N/A   Clear
2:35 AM 48.2 °F - 47.3 °F 97% 30.04 in 10.0 mi Calm Calm - N/A   Clear
2:55 AM 46.6 °F - 46.2 °F 99% 30.04 in 10.0 mi SSW 5.8 mph - N/A   Clear
3:15 AM 50.0 °F - 48.6 °F 95% 30.04 in 10.0 mi East 3.5 mph - N/A   Clear
3:35 AM 47.7 °F - 46.6 °F 96% 30.04 in 10.0 mi Calm Calm - N/A   Clear
3:55 AM 50.0 °F - 47.8 °F 92% 30.04 in 10.0 mi Calm Calm - N/A   Clear
4:15 AM 49.5 °F - 48.6 °F 97% 30.04 in 10.0 mi Calm Calm - N/A   Clear
4:35 AM 45.7 °F - 44.6 °F 96% 30.04 in 10.0 mi Calm Calm - N/A   Clear
4:55 AM 48.4 °F - 46.6 °F 93% 30.04 in 10.0 mi East 4.6 mph - N/A   Clear
5:15 AM 45.9 °F - 45.1 °F 97% 30.04 in 10.0 mi Calm Calm - N/A   Clear
5:35 AM 46.4 °F - 45.9 °F 98% 30.05 in 5.0 mi Calm Calm - N/A   Clear
5:55 AM 47.8 °F - 47.5 °F 99% 30.05 in 10.0 mi East 3.5 mph - N/A   Clear
6:15 AM 45.5 °F 44.2 °F 44.8 °F 97% 30.05 in 7.0 mi ENE 3.5 mph - N/A   Clear
6:35 AM 46.0 °F 44.8 °F 45.9 °F 99% 30.06 in 4.0 mi ENE 3.5 mph - N/A   Clear
6:55 AM 46.0 °F 44.8 °F 45.9 °F 99% 30.06 in 10.0 mi ENE 3.5 mph - N/A   Clear
7:15 AM 45.5 °F - 45.1 °F 99% 30.07 in 7.0 mi Calm Calm - N/A   Clear
7:35 AM 46.2 °F 45.0 °F 45.9 °F 99% 30.07 in 7.0 mi ENE 3.5 mph - N/A   Clear
7:55 AM 47.5 °F - 47.3 °F 99% 30.07 in 10.0 mi ENE 3.5 mph - N/A   Clear
8:15 AM 49.1 °F - 48.2 °F 97% 30.08 in 10.0 mi Calm Calm - N/A   Clear
8:35 AM 51.3 °F - 49.6 °F 94% 30.09 in 10.0 mi Calm Calm - N/A   Clear
8:55 AM 53.8 °F - 50.9 °F 90% 30.09 in 10.0 mi East 3.5 mph - N/A   Clear
9:15 AM 56.5 °F - 52.3 °F 86% 30.09 in 10.0 mi ESE 5.8 mph - N/A   Clear
9:35 AM 59.2 °F - 52.5 °F 79% 30.10 in 10.0 mi SSE 5.8 mph - N/A   Clear
9:55 AM 62.4 °F - 52.7 °F 70% 30.10 in 10.0 mi SSE 6.9 mph - N/A   Clear
10:15 AM 64.0 °F - 52.0 °F 65% 30.10 in 10.0 mi South 13.8 mph 24.2 mph N/A   Clear
10:35 AM 65.8 °F - 52.3 °F 62% 30.10 in 10.0 mi South 16.1 mph 21.9 mph N/A   Clear
10:55 AM 67.1 °F - 52.7 °F 60% 30.10 in 10.0 mi South 17.3 mph 24.2 mph N/A   Clear
11:15 AM 68.9 °F - 53.1 °F 57% 30.10 in 10.0 mi SSE 12.7 mph 24.2 mph N/A   Clear
11:35 AM 70.0 °F - 53.2 °F 55% 30.10 in 10.0 mi SSE 11.5 mph 21.9 mph N/A   Clear
11:55 AM 70.5 °F - 53.2 °F 54% 30.09 in 10.0 mi South 12.7 mph 25.3 mph N/A   Clear
12:15 PM 71.1 °F - 53.8 °F 54% 30.09 in 10.0 mi South 10.4 mph - N/A   Clear
12:35 PM 72.7 °F - 54.1 °F 52% 30.08 in 10.0 mi SSW 8.1 mph 16.1 mph N/A   Clear
12:55 PM 73.8 °F - 54.7 °F 51% 30.08 in 10.0 mi SSE 11.5 mph - N/A   Clear
1:15 PM 73.8 °F - 54.9 °F 52% 30.07 in 10.0 mi SSE 9.2 mph - N/A   Clear
1:35 PM 74.3 °F - 55.0 °F 51% 30.06 in 10.0 mi South 8.1 mph - N/A   Clear
1:55 PM 74.8 °F - 55.4 °F 51% 30.04 in 10.0 mi SSE 9.2 mph - N/A   Clear
2:15 PM 75.9 °F - 55.8 °F 49% 30.03 in 10.0 mi SE 13.8 mph 18.4 mph N/A   Clear
2:35 PM 76.6 °F - 55.2 °F 47% 30.03 in 10.0 mi SSE 9.2 mph 17.3 mph N/A   Clear
2:55 PM 77.2 °F - 55.4 °F 47% 30.02 in 10.0 mi SE 12.7 mph 17.3 mph N/A   Clear
3:15 PM 77.7 °F - 55.6 °F 46% 30.02 in 10.0 mi South 9.2 mph 18.4 mph N/A   Clear
3:55 PM 78.3 °F - 55.2 °F 45% 30.01 in 10.0 mi South 11.5 mph 18.4 mph N/A   Clear
4:15 PM 78.4 °F - 55.4 °F 45% 30.01 in 10.0 mi South 9.2 mph 16.1 mph N/A   Clear
4:35 PM 78.3 °F - 55.8 °F 46% 30.01 in 10.0 mi SSE 6.9 mph 16.1 mph N/A   Clear
4:55 PM 77.9 °F - 55.6 °F 46% 30.01 in 10.0 mi South 16.1 mph - N/A   Clear
5:15 PM 77.5 °F - 56.3 °F 48% 30.01 in 10.0 mi ESE 9.2 mph - N/A   Clear
5:35 PM 76.8 °F - 56.3 °F 49% 30.01 in 10.0 mi SE 8.1 mph 17.3 mph N/A   Clear
5:55 PM 75.4 °F - 55.8 °F 50% 30.01 in 10.0 mi SE 10.4 mph 16.1 mph N/A   Clear
6:15 PM 74.1 °F - 56.1 °F 53% 30.01 in 10.0 mi ESE 9.2 mph 19.6 mph N/A   Clear
6:55 PM 69.1 °F - 56.3 °F 64% 30.00 in 10.0 mi ESE 8.1 mph - N/A   Clear
7:15 PM 66.4 °F - 55.9 °F 69% 30.00 in 10.0 mi ESE 8.1 mph - N/A   Clear
7:35 PM 66.2 °F - 56.1 °F 70% 30.00 in 10.0 mi ESE 6.9 mph - N/A   Clear
7:55 PM 66.4 °F - 55.4 °F 68% 30.01 in 10.0 mi ESE 6.9 mph - N/A   Clear
8:15 PM 64.8 °F - 55.4 °F 72% 30.01 in 10.0 mi East 5.8 mph - N/A   Clear
8:35 PM 63.5 °F - 55.4 °F 75% 30.01 in 10.0 mi ESE 6.9 mph - N/A   Clear
8:55 PM 64.8 °F - 54.3 °F 69% 30.01 in 10.0 mi SE 6.9 mph - N/A   Clear
9:15 PM 63.7 °F - 53.6 °F 70% 30.01 in 10.0 mi SSE 6.9 mph - N/A   Clear
9:35 PM 61.5 °F - 52.9 °F 73% 30.01 in 10.0 mi SE 5.8 mph - N/A   Clear
9:55 PM 60.1 °F - 53.1 °F 78% 30.02 in 10.0 mi SE 3.5 mph - N/A   Clear
10:15 PM 58.5 °F - 52.7 °F 81% 30.03 in 10.0 mi Calm Calm - N/A   Clear
10:35 PM 57.4 °F - 52.2 °F 83% 30.04 in 10.0 mi Calm Calm - N/A   Clear
10:55 PM 53.8 °F - 51.1 °F 91% 30.04 in 10.0 mi Calm Calm - N/A   Clear
11:15 PM 55.9 °F - 52.3 °F 88% 30.04 in 10.0 mi Calm Calm - N/A   Clear
11:55 PM 55.6 °F - 51.8 °F 87% 30.04 in 10.0 mi Calm Calm - N/A   Clear